| time (UTC) | temp C | wind direction | speed KPH | gust KPH | rain 1hr cm | rain 24hr cm | rain mn cm | humidity % | barometer mb |
| 20260505010052 | 8 | 210 | 6.4 | 16.1 | 0.00 | 0.00 | 0.00 | 82 | 1007.1 |
| 20260505004552 | 8 | 229 | 8.0 | 12.9 | 0.00 | 0.00 | 0.00 | 85 | 1007.1 |
| 20260505003152 | 8 | 206 | 4.8 | 11.3 | 0.00 | 0.00 | 0.00 | 82 | 1007.0 |
| 20260505001551 | 9 | 189 | 6.4 | 12.9 | 0.00 | 0.00 | 0.00 | 80 | 1006.8 |
| 20260505000050 | 9 | 177 | 9.7 | 17.7 | 0.00 | 0.00 | 0.00 | 79 | 1006.5 |
| 20260504234550 | 9 | 169 | 6.4 | 14.5 | 0.00 | 0.00 | 0.00 | 79 | 1006.3 |
| 20260504233058 | 10 | 174 | 8.0 | 11.3 | 0.00 | 0.00 | 0.00 | 78 | 1006.0 |
| 20260504231549 | 11 | 181 | 8.0 | 16.1 | 0.00 | 0.00 | 0.00 | 75 | 1005.8 |
| 20260504230048 | 12 | 187 | 1.6 | 8.0 | 0.00 | 0.00 | 0.00 | 73 | 1005.6 |
| 20260504224548 | 12 | 168 | 3.2 | 11.3 | 0.00 | 0.00 | 0.00 | 72 | 1005.4 |
| 20260504223054 | 13 | 172 | 6.4 | 9.7 | 0.00 | 0.00 | 0.00 | 70 | 1005.4 |
| 20260504221551 | 13 | 159 | 4.8 | 11.3 | 0.00 | 0.00 | 0.00 | 68 | 1005.4 |
| 20260504220104 | 14 | 197 | 3.2 | 9.7 | 0.00 | 0.00 | 0.00 | 66 | 1005.3 |
| 20260504214546 | 15 | 208 | 4.8 | 11.3 | 0.00 | 0.00 | 0.00 | 66 | 1005.1 |
| 20260504213055 | 15 | 197 | 3.2 | 12.9 | 0.00 | 0.00 | 0.00 | 62 | 1005.0 |
| 20260504211545 | 15 | 170 | 4.8 | 14.5 | 0.00 | 0.00 | 0.00 | 62 | 1005.2 |
| 20260504210047 | 15 | 178 | 3.2 | 16.1 | 0.00 | 0.00 | 0.00 | 61 | 1005.1 |
| 20260504204559 | 15 | 216 | 8.0 | 17.7 | 0.00 | 0.00 | 0.00 | 59 | 1004.9 |
| 20260504203044 | 15 | 192 | 6.4 | 16.1 | 0.00 | 0.00 | 0.00 | 58 | 1004.8 |
| 20260504201543 | 15 | 224 | 4.8 | 16.1 | 0.00 | 0.00 | 0.00 | 60 | 1004.9 |
| 20260504200044 | 15 | 189 | 9.7 | 14.5 | 0.00 | 0.05 | 0.00 | 65 | 1004.9 |
| 20260504194544 | 15 | 245 | 8.0 | 14.5 | 0.00 | 0.05 | 0.00 | 64 | 1004.9 |
| 20260504193038 | 14 | 182 | 9.7 | 14.5 | 0.00 | 0.05 | 0.00 | 66 | 1005.0 |
| 20260504191540 | 13 | 241 | 9.7 | 20.9 | 0.00 | 0.05 | 0.00 | 65 | 1005.3 |
| 20260504190038 | 13 | 245 | 8.0 | 20.9 | 0.00 | 0.15 | 0.00 | 66 | 1005.6 |
| 20260504184536 | 13 | 240 | 14.5 | 22.5 | 0.00 | 0.15 | 0.00 | 65 | 1005.7 |
| 20260504183033 | 12 | 245 | 9.7 | 24.1 | 0.00 | 0.15 | 0.00 | 67 | 1005.9 |
| 20260504181531 | 12 | 243 | 12.9 | 27.4 | 0.00 | 0.15 | 0.00 | 66 | 1005.7 |
| 20260504180031 | 12 | 233 | 11.3 | 27.4 | 0.00 | 0.36 | 0.00 | 66 | 1005.5 |
| 20260504174530 | 12 | 244 | 17.7 | 35.4 | 0.00 | 0.36 | 0.00 | 64 | 1005.2 |
| 20260504173030 | 12 | 211 | 12.9 | 29.0 | 0.00 | 0.36 | 0.00 | 66 | 1005.1 |
| 20260504171529 | 12 | 241 | 4.8 | 32.2 | 0.00 | 0.36 | 0.00 | 66 | 1005.2 |
| 20260504170127 | 11 | 187 | 14.5 | 27.4 | 0.00 | 0.36 | 0.00 | 69 | 1005.2 |
| 20260504081537 | 3 | 243 | 6.4 | 9.7 | 0.00 | 2.69 | 0.00 | 84 | 1006.6 |
| 20260504044558 | 4 | 270 | 8.0 | 16.1 | 0.00 | 3.02 | 3.02 | 81 | 1005.2 |
| 20260504043100 | 4 | 284 | 9.7 | 16.1 | 0.00 | 3.02 | 3.02 | 80 | 1005.2 |
| 20260504041557 | 4 | 273 | 9.7 | 17.7 | 0.00 | 3.02 | 3.02 | 81 | 1005.1 |
| 20260504040055 | 4 | 262 | 8.0 | 16.1 | 0.00 | 3.02 | 3.02 | 80 | 1005.0 |
| 20260504034553 | 5 | 296 | 12.9 | 20.9 | 0.00 | 3.02 | 3.02 | 76 | 1004.9 |
| 20260504033053 | 5 | 273 | 14.5 | 24.1 | 0.00 | 3.02 | 3.02 | 75 | 1004.7 |
| 20260504031552 | 5 | 276 | 12.9 | 20.9 | 0.00 | 3.02 | 3.02 | 75 | 1004.6 |
| 20260504030049 | 5 | 285 | 12.9 | 22.5 | 0.00 | 3.02 | 3.02 | 74 | 1004.4 |
| 20260504024552 | 5 | 300 | 11.3 | 22.5 | 0.00 | 3.02 | 3.02 | 75 | 1004.3 |
| 20260504023048 | 5 | 292 | 12.9 | 24.1 | 0.00 | 3.02 | 3.02 | 74 | 1004.2 |
| 20260504021547 | 5 | 296 | 12.9 | 22.5 | 0.00 | 3.02 | 3.02 | 75 | 1004.3 |
| 20260504020126 | 6 | 316 | 16.1 | 29.0 | 0.00 | 3.02 | 3.02 | 75 | 1004.1 |
| 20260504014559 | 6 | 287 | 17.7 | 29.0 | 0.00 | 3.02 | 3.02 | 75 | 1004.0 |
| 20260504013055 | 6 | 286 | 17.7 | 29.0 | 0.00 | 3.02 | 3.02 | 78 | 1003.7 |
| 20260504011546 | 6 | 305 | 14.5 | 27.4 | 0.00 | 3.02 | 3.02 | 81 | 1003.4 |